Weather History for YBCS - September, 2012

Change the Weather History Date:

Monday, September 3, 2012

  Actual Average Record
Temperature  
Mean Temperature 72 °F -  
Max Temperature 81 °F 82 °F 87 °F (2000)
Min Temperature 64 °F 66 °F 41 °F (2006)
Cooling Degree Days 8    
Growing Degree Days 22 (Base 50)    
Moisture  
Dew Point 56 °F    
Average Humidity 55    
Maximum Humidity 78    
Minimum Humidity 23    
Precipitation  
Precipitation 0.00 in 0.05 in - ()
Sea Level Pressure  
Sea Level Pressure 30.03 in    
Wind  
Wind Speed 11 mph ()    
Max Wind Speed 20 mph    
Max Gust Speed -    
Visibility 7.6 miles    
Events      
Averages and records for this station are not official NWS values.
T = Trace of Precipitation, MM = Missing Value Source: Averaged Metar Reports

Daily Weather History Graph

Daily Weather History Graph

Search for Another Location

Airport or City:

Trip Planner

Search our weather history database for the weather conditions in past years. The results will help you decide how hot, cold, wet, or windy it might be!

Date:

Astronomy

Sep. 03, 2012 Rise Set
Actual Time 6:22 AM AEST 6:10 PM AEST
Civil Twilight 6:00 AM AEST 6:32 PM AEST
Nautical Twilight 5:35 AM AEST 6:57 PM AEST
Astronomical Twilight 5:10 AM AEST 7:22 PM AEST
Moon 8:26 PM AEST (9/3) 7:43 AM AEST (9/3)
Length of Visible Light 12h 32m
Length of Day
11h 48m
Waning Gibbous, 93% of the Moon is Illuminated
Sep 3
Waning Gibbous
Sep 8
Last Quarter
Sep 16
New
Sep 23
First Quarter
Sep 30
Full

Hourly Weather History & Observations

Time (AEST) Temp. Heat Index Dew Point Humidity Pressure Visibility Wind Dir Wind Speed Gust Speed Precip Events Conditions
12:00 AM 70 °F - 59 °F 59% 30.07 in - SSE 9.2 mph - -  
12:00 AM 69.8 °F - 59.0 °F 68% 30.06 in 6.2 mi SSE 9.2 mph - N/A   Scattered Clouds
12:30 AM 69.8 °F - 57.2 °F 64% 30.06 in 6.2 mi South 10.4 mph - N/A   Mostly Cloudy
1:00 AM 70 °F - 56 °F 51% 30.06 in - South 9.2 mph - -  
1:00 AM 69.8 °F - 55.4 °F 60% 30.04 in 6.2 mi South 9.2 mph - N/A   Mostly Cloudy
1:30 AM 69.8 °F - 55.4 °F 60% 30.04 in 6.2 mi South 11.5 mph - N/A   Mostly Cloudy
2:00 AM 69.8 °F - 55.4 °F 60% 30.04 in 6.2 mi SSE 11.5 mph - N/A   Mostly Cloudy
2:30 AM 69.8 °F - 55.4 °F 60% 30.04 in 6.2 mi SSE 9.2 mph - N/A   Mostly Cloudy
3:00 AM 68 °F - 55 °F 54% 30.03 in - SSE 9.2 mph - -  
3:00 AM 68.0 °F - 55.4 °F 64% 30.01 in 6.2 mi SSE 9.2 mph - N/A   Scattered Clouds
3:30 AM 68.0 °F - 55.4 °F 64% 30.01 in 6.2 mi SSE 8.1 mph - N/A   Partly Cloudy
4:00 AM 67 °F - 55 °F 56% 30.03 in - SSE 9.2 mph - -  
4:00 AM 68.0 °F - 55.4 °F 64% 30.01 in 6.2 mi SSE 9.2 mph - N/A   Partly Cloudy
4:30 AM 68.0 °F - 53.6 °F 60% 30.01 in 6.2 mi SSE 8.1 mph - N/A   Partly Cloudy
5:00 AM 66.2 °F - 55.4 °F 68% 30.04 in 6.2 mi SE 8.1 mph - N/A   Partly Cloudy
5:30 AM 64.4 °F - 55.4 °F 73% 30.04 in 6.2 mi SE 9.2 mph - N/A   Partly Cloudy
6:00 AM 65 °F - 55 °F 62% 30.05 in 19 mi SE 9.2 mph - -   Partly Cloudy
6:00 AM 64.4 °F - 55.4 °F 73% 30.04 in 6.2 mi SE 9.2 mph - N/A   Partly Cloudy
6:30 AM 64.4 °F - 55.4 °F 73% 30.04 in 6.2 mi SE 8.1 mph - N/A   Partly Cloudy
7:00 AM 68 °F - 54 °F 51% 30.07 in - SE 8.1 mph - -  
7:00 AM 68.0 °F - 53.6 °F 60% 30.06 in 6.2 mi SE 8.1 mph - N/A   Partly Cloudy
7:30 AM 69.8 °F - 51.8 °F 53% 30.06 in 6.2 mi South 8.1 mph - N/A   Partly Cloudy
8:00 AM 71.6 °F - 53.6 °F 53% 30.06 in 6.2 mi SSE 10.4 mph - N/A   Partly Cloudy
8:30 AM 73.4 °F - 53.6 °F 50% 30.06 in 6.2 mi South 10.4 mph - N/A   Partly Cloudy
9:00 AM 75 °F - 53 °F 35% 30.09 in 19 mi South 11.5 mph - -   Partly Cloudy
9:00 AM 75.2 °F - 51.8 °F 44% 30.06 in 6.2 mi South 11.5 mph - N/A   Partly Cloudy
9:30 AM 77.0 °F - 53.6 °F 44% 30.06 in 6.2 mi SSE 11.5 mph - N/A   Partly Cloudy
10:00 AM 76 °F - 53 °F 34% 30.09 in - SE 18.4 mph - -  
10:00 AM 77.0 °F - 53.6 °F 44% 30.06 in 6.2 mi SE 18.4 mph - N/A   Partly Cloudy
10:30 AM 78.8 °F - 51.8 °F 39% 30.06 in 6.2 mi SE 17.3 mph - N/A   Partly Cloudy
11:00 AM 78.8 °F - 53.6 °F 42% 30.04 in 6.2 mi ESE 19.6 mph - N/A   Partly Cloudy
11:30 AM 77.0 °F - 53.6 °F 44% 30.04 in 6.2 mi ESE 18.4 mph - N/A   Partly Cloudy
12:00 PM 80 °F - 52 °F 27% 30.03 in 19 mi ESE 18.4 mph - -   Partly Cloudy
12:00 PM 80.6 °F - 51.8 °F 37% 30.04 in 6.2 mi ESE 18.4 mph - N/A   Partly Cloudy
12:30 PM 80.6 °F - 50.0 °F 34% 30.01 in 6.2 mi ESE 17.3 mph - N/A   Partly Cloudy
1:00 PM 81 °F - 49 °F 23% 30.01 in - SE 18.4 mph - -  
1:00 PM 80.6 °F - 50.0 °F 34% 30.01 in 6.2 mi SE 18.4 mph - N/A   Partly Cloudy
1:30 PM 80.6 °F 80.3 °F 53.6 °F 39% 29.98 in 6.2 mi ESE 17.3 mph - N/A   Partly Cloudy
2:00 PM 78.8 °F - 51.8 °F 39% 29.98 in 6.2 mi SE 17.3 mph - N/A   Partly Cloudy
2:30 PM 80.6 °F 80.3 °F 53.6 °F 39% 29.98 in 6.2 mi SE 17.3 mph - N/A   Partly Cloudy
3:00 PM 78 °F - 55 °F 34% 29.97 in 19 mi SE 18.4 mph - -   Partly Cloudy
3:00 PM 78.8 °F - 55.4 °F 44% 29.95 in 6.2 mi SE 18.4 mph - N/A   Partly Cloudy
3:30 PM 78.8 °F - 55.4 °F 44% 29.95 in 6.2 mi SE 17.3 mph - N/A   Partly Cloudy
4:00 PM 78 °F - 58 °F 39% 29.97 in - SE 18.4 mph - -  
4:00 PM 77.0 °F - 57.2 °F 50% 29.95 in 6.2 mi SE 18.4 mph - N/A   Partly Cloudy
4:30 PM 75.2 °F - 57.2 °F 53% 29.98 in 6.2 mi SE 17.3 mph - N/A   Partly Cloudy
5:00 PM 75.2 °F - 59.0 °F 57% 29.98 in 6.2 mi SE 18.4 mph - N/A   Partly Cloudy
5:30 PM 73.4 °F - 59.0 °F 61% 29.98 in 6.2 mi SE 13.8 mph - N/A   Partly Cloudy
6:00 PM 72 °F - 61 °F 59% 30.00 in 19 mi SSE 11.5 mph - -   Partly Cloudy
6:00 PM 71.6 °F - 60.8 °F 69% 30.01 in 6.2 mi SSE 11.5 mph - N/A   Partly Cloudy
6:30 PM 71.6 °F - 60.8 °F 69% 30.01 in 6.2 mi SSE 12.7 mph - N/A   Partly Cloudy
7:00 PM 71 °F - 59 °F 57% 30.03 in - SSE 11.5 mph - -  
7:00 PM 71.6 °F - 59.0 °F 64% 30.01 in 6.2 mi SSE 11.5 mph - N/A   Partly Cloudy
7:30 PM 69.8 °F - 59.0 °F 68% 30.04 in 6.2 mi South 8.1 mph - N/A   Partly Cloudy
8:00 PM 69.8 °F - 60.8 °F 73% 30.04 in 6.2 mi South 8.1 mph - N/A   Partly Cloudy
8:30 PM 69.8 °F - 59.0 °F 68% 30.04 in 6.2 mi South 10.4 mph - N/A   Partly Cloudy
9:00 PM 69 °F - 60 °F 65% 30.05 in 16 mi South 10.4 mph - -   Partly Cloudy
9:00 PM 69.8 °F - 59.0 °F 68% 30.04 in 6.2 mi South 10.4 mph - N/A   Partly Cloudy
9:30 PM 69.8 °F - 60.8 °F 73% 30.04 in 6.2 mi SSE 11.5 mph - N/A   Partly Cloudy
10:00 PM 69 °F - 60 °F 66% 30.06 in - SSE 10.4 mph - -  
10:00 PM 69.8 °F - 60.8 °F 73% 30.04 in 6.2 mi SSE 10.4 mph - N/A   Partly Cloudy
10:30 PM 69.8 °F - 60.8 °F 73% 30.04 in 6.2 mi South 9.2 mph - N/A   Partly Cloudy
11:00 PM 68.0 °F - 60.8 °F 78% 30.04 in 6.2 mi SSE 9.2 mph - N/A   Partly Cloudy
11:30 PM 68.0 °F - 59.0 °F 73% 30.06 in 6.2 mi SSE 10.4 mph - N/A   Partly Cloudy